Погода в Чуваше-Отарах

Россия / Республика Марий Эл     55°56′48″N   48°04′39″E
темп.,
°C
ветер,
м/с
пор.,
м/с
влажн.,
%
обл.,
%
осадки,
мм/ч
давл.,
гПа
погр.,
м
14 мая, пт
пт1400:00+16ю31278100 0.0 1020240
03:00+14ююв378871 0.6 1021123
06:00+16юв3986100 0.3 1020248
09:00+21ююв575789 0.3 1020601
12:00+24ююв5748100 0.0 1019844
15:00+25ю475293 0.0 10181216
18:00+23ююз35680 0.1 1017125
21:00+19юз118287 0.2 101811
15 мая, сб
сб1500:00+17ю228698 0.2 101812
03:00+17юв2386100 0.2 101836
06:00+19ююв3984100 0.0 1017232
09:00+23ю51157100 0.0 1017553
12:00+27ю71345100 0.0 10171152
15:00+27ююз7114450 0.0 10161084
18:00+23ю5135648 0.0 1016385
21:00+18ю4136432 0.0 1016227
16 мая, вс
вс1600:00+17ю4116727 0.0 1016165
03:00+16ю346974 0.0 101659
06:00+17ю396993 0.0 1016220
09:00+23ююз475358 0.0 1016505
12:00+26ююз584491 0.0 10161059
15:00+26юз4747100 0.0 10161196
18:00+24зюз246522 0.0 101598
21:00+19юз227529 0.0 101614
17 мая, пн
пн1700:00+17юз227878 0.0 101727
03:00+16зюз228275 0.0 101713
06:00+18ююз127778 0.0 101896
09:00+23юз126316 0.0 1018444
12:00+26ююз344518 0.0 10181157
15:00+28ююз2442100 0.0 10171247
18:00+26в11545 0.0 101712
21:00+20ю33685 0.0 101723
18 мая, вт
вт1800:00+18ююв227021 0.0 101716
03:00+17ю33675 0.0 101732
06:00+20ююв24665 0.0 1017135
09:00+25ююв46515 0.0 1017492
12:00+28ю464276 0.0 10171093
15:00+28ююв3639100 0.0 10162286
18:00+24юв355884 0.0 101599
21:00+20юв3558100 0.0 101672